Pittsburgh, PA

6:10 PM EDT on April 26, 2018 (GMT -0400)
Pittsburgh International

Weather History for KPIT - June, 2013

Change the Weather History Date:

Wednesday, June 19, 2013

  Actual Average Record
Temperature  
Mean Temperature 66 °F 70 °F  
Max Temperature 76 °F 80 °F 97 °F (1994)
Min Temperature 56 °F 59 °F 46 °F (1999)
Degree Days  
Heating Degree Days 0 1  
Month to date heating degree days 16 32  
Since 1 June heating degree days 16 32  
Since 1 July heating degree days 5566 5704  
Cooling Degree Days 1 5  
Month to date cooling degree days 68 72  
Year to date cooling degree days 172 124  
Since 1 June cooling degree days 68 72  
Growing Degree Days 16 (Base 50)    
Moisture  
Dew Point 47 °F    
Average Humidity 56    
Maximum Humidity 80    
Minimum Humidity 31    
Precipitation  
Precipitation 0.00 in 0.15 in 1.19 in (1983)
Month to date precipitation 2.84 2.57  
Year to date precipitation 15.18 17.67  
Snow  
Snow 0.00 in 0.00 in 0.00 in (2002)
Month to date snowfall 0.0 0.0  
Since 1 July snowfall 57.4 41.9  
Snow Depth 0.00 in    
Sea Level Pressure  
Sea Level Pressure 30.09 in    
Wind  
Wind Speed 6 mph (NNE)    
Max Wind Speed 13 mph    
Max Gust Speed 21 mph    
Visibility 10 miles    
Events      
T = Trace of Precipitation, MM = Missing Value Source: NWS Daily Summary

Daily Weather History Graph

Daily Weather History Graph

Search for Another Location

Airport or City:

Astronomy

Jun. 19, 2013 Rise Set
Actual Time 5:50 AM EDT 8:54 PM EDT
Civil Twilight 5:17 AM EDT 9:27 PM EDT
Nautical Twilight 4:34 AM EDT 10:10 PM EDT
Astronomical Twilight 3:44 AM EDT 10:59 PM EDT
Moon 4:44 PM EDT (6/19) 2:34 AM EDT (6/19)
Length of Visible Light 16h 10m
Length of Day
15h 04m
Waxing Gibbous, 80% of the Moon is Illuminated
Jun 19
Waxing Gibbous
Jun 23
Full
Jun 30
Last Quarter
Jul 8
New
Jul 15
First Quarter

Hourly Weather History & Observations

Time (EDT) Temp. Dew Point Humidity Pressure Visibility Wind Dir Wind Speed Gust Speed Precip Events Conditions
12:51 AM 62.1 °F 53.1 °F 72% 30.00 in 10.0 mi North 10.4 mph - N/A   Mostly Cloudy
1:51 AM 61.0 °F 52.0 °F 72% 30.00 in 10.0 mi North 10.4 mph - N/A   Mostly Cloudy
2:51 AM 59.0 °F 52.0 °F 78% 30.00 in 10.0 mi North 8.1 mph - N/A   Scattered Clouds
3:51 AM 57.9 °F 51.1 °F 78% 30.01 in 10.0 mi NNE 5.8 mph - N/A   Partly Cloudy
4:51 AM 57.0 °F 51.1 °F 81% 30.02 in 10.0 mi NNE 4.6 mph - N/A   Partly Cloudy
5:51 AM 57.0 °F 48.9 °F 74% 30.04 in 10.0 mi NNE 6.9 mph - N/A   Scattered Clouds
6:51 AM 57.0 °F 48.0 °F 72% 30.06 in 10.0 mi NNE 8.1 mph - N/A   Scattered Clouds
7:51 AM 59.0 °F 48.0 °F 67% 30.08 in 10.0 mi NE 5.8 mph - N/A   Partly Cloudy
8:51 AM 62.1 °F 46.9 °F 58% 30.10 in 10.0 mi NE 10.4 mph - N/A   Partly Cloudy
9:51 AM 64.0 °F 48.0 °F 56% 30.12 in 10.0 mi ENE 6.9 mph - N/A   Clear
10:51 AM 68.0 °F 48.9 °F 50% 30.13 in 10.0 mi NE 9.2 mph - N/A   Clear
11:51 AM 70.0 °F 48.0 °F 46% 30.14 in 10.0 mi North 9.2 mph 17.3 mph N/A   Partly Cloudy
12:51 PM 71.1 °F 46.0 °F 41% 30.13 in 10.0 mi Variable 6.9 mph - N/A   Partly Cloudy
1:51 PM 73.0 °F 46.0 °F 38% 30.13 in 10.0 mi NNE 10.4 mph - N/A   Partly Cloudy
2:51 PM 75.0 °F 46.0 °F 36% 30.12 in 10.0 mi NNE 8.1 mph - N/A   Partly Cloudy
3:51 PM 75.0 °F 44.1 °F 33% 30.11 in 10.0 mi Variable 5.8 mph - N/A   Partly Cloudy
4:51 PM 75.9 °F 44.1 °F 32% 30.11 in 10.0 mi North 6.9 mph - N/A   Partly Cloudy
5:51 PM 75.0 °F 42.1 °F 31% 30.11 in 10.0 mi East 5.8 mph - N/A   Partly Cloudy
6:51 PM 75.0 °F 43.0 °F 32% 30.11 in 10.0 mi Calm Calm - N/A   Clear
7:51 PM 75.0 °F 42.1 °F 31% 30.12 in 10.0 mi Calm Calm - N/A   Clear
8:51 PM 72.0 °F 44.1 °F 37% 30.12 in 10.0 mi NE 3.5 mph - N/A   Clear
9:51 PM 64.9 °F 48.9 °F 56% 30.13 in 10.0 mi Calm Calm - N/A   Clear
10:51 PM 62.1 °F 48.0 °F 60% 30.17 in 10.0 mi WNW 4.6 mph - N/A   Clear
11:51 PM 61.0 °F 48.9 °F 64% 30.17 in 10.0 mi Calm Calm - N/A   Clear